EA5BZ Weather Reports


time (UTC)temp
C
wind
direction
speed
KPH
gust
KPH
rain 1hr
cm
rain 24hr
cm
rain mn
cm
humidity
%
barometer
mb
20260510184016 22 180 6.4 16.1 0.00 0.00 0.00 57 1012.2
20260510183516 22 203 6.4 16.1 0.00 0.00 0.00 57 1012.3
20260510183016 22 180 9.7 24.1 0.00 0.00 0.00 56 1012.2
20260510182516 22 180 8.0 22.5 0.00 0.00 0.00 56 1012.0
20260510182016 22 180 6.4 16.1 0.00 0.00 0.00 55 1012.1
20260510181536 22 180 6.4 17.7 0.00 0.00 0.00 55 1012.1
20260510181017 22 203 9.7 22.5 0.00 0.00 0.00 55 1012.0
20260510180517 22 203 12.9 24.1 0.00 0.00 0.00 54 1012.0
20260510180017 22 203 14.5 27.4 0.00 0.00 0.00 54 1012.0
20260510175516 22 203 12.9 30.6 0.00 0.00 0.00 54 1012.0
20260510175017 23 203 12.9 27.4 0.00 0.00 0.00 53 1012.0
20260510174536 23 203 12.9 25.7 0.00 0.00 0.00 53 1012.0
20260510174016 23 180 14.5 27.4 0.00 0.00 0.00 52 1012.0
20260510173517 23 180 14.5 27.4 0.00 0.00 0.00 52 1011.9
20260510173036 23 225 16.1 29.0 0.00 0.00 0.00 52 1012.1
20260510172516 23 203 20.9 30.6 0.00 0.00 0.00 52 1011.9
20260510172016 23 203 20.9 35.4 0.00 0.00 0.00 52 1011.9
20260510171517 23 203 14.5 27.4 0.00 0.00 0.00 52 1011.8
20260510171016 23 203 16.1 29.0 0.00 0.00 0.00 51 1011.9
20260510170517 23 203 19.3 33.8 0.00 0.00 0.00 51 1012.0
20260510170036 23 158 16.1 30.6 0.00 0.00 0.00 51 1012.0
20260510165516 23 180 19.3 33.8 0.00 0.00 0.00 51 1012.0
20260510165037 23 180 12.9 33.8 0.00 0.00 0.00 50 1012.1
20260510164516 23 135 16.1 30.6 0.00 0.00 0.00 50 1012.0
20260510164016 23 203 14.5 33.8 0.00 0.00 0.00 50 1012.1
20260510163516 23 203 17.7 30.6 0.00 0.00 0.00 50 1012.1
20260510163017 23 180 19.3 32.2 0.00 0.00 0.00 50 1012.1
20260510162517 23 180 20.9 33.8 0.00 0.00 0.00 53 1012.1
20260510162016 23 158 22.5 37.0 0.00 0.00 0.00 54 1012.2
20260510161516 23 158 22.5 40.2 0.00 0.00 0.00 54 1012.1
20260510161017 23 158 17.7 29.0 0.00 0.00 0.00 54 1012.2
20260510160516 23 158 20.9 35.4 0.00 0.00 0.00 54 1012.1
20260510160037 23 158 24.1 40.2 0.00 0.00 0.00 54 1012.0
20260510155556 23 158 25.7 41.8 0.00 0.00 0.00 54 1012.0
20260510155016 23 158 22.5 38.6 0.00 0.00 0.00 54 1012.1
20260510154517 23 135 22.5 40.2 0.00 0.00 0.00 53 1012.1
20260510154016 23 135 22.5 41.8 0.00 0.00 0.00 53 1012.3
20260510153516 23 135 16.1 32.2 0.00 0.00 0.00 54 1012.2
20260510153016 23 158 25.7 40.2 0.00 0.00 0.00 54 1012.2
20260510152516 23 180 17.7 32.2 0.00 0.00 0.00 53 1012.2
20260510152016 23 158 19.3 37.0 0.00 0.00 0.00 54 1012.2
20260510151556 23 158 22.5 40.2 0.00 0.00 0.00 57 1012.2
20260510151016 22 135 20.9 37.0 0.00 0.00 0.00 61 1012.4
20260510150536 22 135 22.5 38.6 0.00 0.00 0.00 63 1012.2
20260510150018 22 113 22.5 33.8 0.00 0.00 0.00 62 1012.3
20260510145516 22 135 20.9 40.2 0.00 0.00 0.00 62 1012.3
20260510145016 22 113 22.5 46.7 0.00 0.00 0.00 63 1012.4
20260510144516 22 113 17.7 43.5 0.00 0.00 0.00 65 1012.5
20260510144016 22 113 24.1 37.0 0.00 0.00 0.00 65 1012.5
20260510143516 22 135 20.9 35.4 0.00 0.00 0.00 68 1012.6
20260510143016 22 135 17.7 32.2 0.00 0.00 0.00 69 1012.7
20260510142517 22 113 17.7 25.7 0.00 0.00 0.00 71 1012.6
20260510142017 22 113 20.9 30.6 0.00 0.00 0.00 72 1012.7
20260510141516 21 113 11.3 27.4 0.00 0.00 0.00 72 1012.8
20260510141043 21 135 12.9 24.1 0.00 0.00 0.00 73 1013.0
20260510140551 21 113 17.7 30.6 0.00 0.00 0.00 73 1013.1
20260510140036 22 135 19.3 29.0 0.00 0.00 0.00 71 1013.2
20260510135516 22 135 14.5 24.1 0.00 0.00 0.00 70 1013.3
20260510135045 21 135 14.5 30.6 0.00 0.00 0.00 70 1013.4
20260510134516 21 135 14.5 25.7 0.00 0.00 0.00 72 1013.4
20260510134017 21 113 16.1 29.0 0.00 0.00 0.00 73 1013.6
20260510133536 21 135 14.5 27.4 0.00 0.00 0.00 73 1013.6
20260510133021 21 90 12.9 19.3 0.00 0.00 0.00 73 1013.5
20260510132516 21 113 11.3 20.9 0.00 0.00 0.00 74 1013.6
20260510132017 21 90 14.5 20.9 0.00 0.00 0.00 72 1013.6
20260510131524 21 90 9.7 19.3 0.00 0.00 0.00 75 1013.8
20260510131016 20 90 11.3 17.7 0.00 0.00 0.00 75 1013.9
20260510130516 20 113 12.9 20.9 0.00 0.00 0.00 74 1014.0
20260510130026 20 113 14.5 20.9 0.00 0.00 0.00 75 1014.1
20260510125516 20 113 11.3 19.3 0.00 0.00 0.00 76 1014.1
20260510125016 20 113 9.7 17.7 0.00 0.00 0.00 76 1014.2
20260510124516 20 113 6.4 14.5 0.00 0.00 0.00 77 1014.3
20260510124016 20 135 6.4 17.7 0.00 0.00 0.00 76 1014.4
20260510123521 20 135 11.3 17.7 0.00 0.00 0.00 77 1014.5
20260510123023 20 135 11.3 19.3 0.00 0.00 0.00 75 1014.7
20260510122521 20 158 9.7 17.7 0.00 0.00 0.00 73 1014.8
20260510122016 20 158 8.0 19.3 0.00 0.00 0.00 75 1014.7
20260510121536 20 135 11.3 16.1 0.00 0.00 0.00 74 1014.8
20260510121016 20 135 11.3 20.9 0.00 0.00 0.00 75 1014.8
20260510120516 20 135 11.3 25.7 0.00 0.03 0.00 74 1014.8
20260510120016 20 135 16.1 24.1 0.00 0.05 0.00 71 1014.8
20260510115516 20 135 14.5 25.7 0.00 0.05 0.00 70 1014.8
20260510115016 21 135 16.1 29.0 0.00 0.05 0.00 68 1014.8
20260510114556 20 135 14.5 24.1 0.00 0.05 0.00 67 1014.9
20260510114016 20 113 20.9 29.0 0.00 0.05 0.00 68 1014.9
20260510113516 20 113 17.7 30.6 0.00 0.05 0.00 69 1015.0
20260510113036 21 113 14.5 29.0 0.00 0.05 0.00 69 1015.1
20260510112536 21 135 17.7 32.2 0.00 0.05 0.00 68 1015.2
20260510112016 21 135 20.9 33.8 0.00 0.05 0.00 64 1015.1
20260510111536 22 135 17.7 24.1 0.00 0.05 0.00 61 1015.2
20260510111036 22 113 11.3 19.3 0.00 0.05 0.00 61 1015.1
20260510110516 22 113 9.7 22.5 0.00 0.05 0.00 61 1015.1
20260510110016 22 113 8.0 17.7 0.00 0.05 0.00 60 1015.2
20260510105516 23 158 11.3 19.3 0.00 0.05 0.00 57 1015.3
20260510105016 23 113 6.4 12.9 0.00 0.05 0.00 56 1015.3
20260510104516 23 203 3.2 11.3 0.00 0.05 0.00 56 1015.3
20260510104016 23 135 6.4 16.1 0.00 0.05 0.00 54 1015.3
20260510103536 22 158 3.2 8.0 0.00 0.05 0.00 55 1015.3
20260510103016 22 158 1.6 8.0 0.00 0.05 0.00 58 1015.3
20260510102516 22 158 1.6 9.7 0.00 0.08 0.00 61 1015.3
20260510102036 22 135 3.2 12.9 0.00 0.10 0.00 61 1015.3
20260510101536 22 23 6.4 14.5 0.00 0.10 0.00 60 1015.4
20260510101016 22 23 3.2 8.0 0.00 0.15 0.00 55 1015.3
20260510100535 22 270 3.2 6.4 0.00 0.15 0.00 55 1015.3
20260510100016 22 248 3.2 6.4 0.00 0.20 0.00 58 1015.4
20260510095516 22 248 3.2 8.0 0.00 0.23 0.00 57 1015.4
20260510095016 22 248 3.2 4.8 0.00 0.23 0.00 57 1015.5
20260510094516 22 248 1.6 6.4 0.00 0.23 0.00 59 1015.5
20260510094016 22 248 3.2 12.9 0.00 0.25 0.00 58 1015.7
20260510093516 22 270 3.2 11.3 0.00 0.28 0.00 59 1015.7
20260510093016 21 270 1.6 9.7 0.00 0.28 0.00 60 1015.6
20260510092515 21 270 1.6 4.8 0.00 0.30 0.00 59 1015.6
20260510092016 21 270 1.6 6.4 0.00 0.33 0.00 60 1015.6
20260510091515 21 270 1.6 4.8 0.00 0.38 0.00 61 1015.6
20260510091015 21 0.0 3.2 0.00 0.43 0.00 63 1015.8
20260510090515 21 270 3.2 12.9 0.00 0.43 0.00 62 1015.9
20260510090016 21 270 1.6 9.7 0.00 0.43 0.00 62 1015.9
20260510085515 20 0.0 4.8 0.00 0.46 0.00 63 1016.0
20260510085036 20 270 1.6 6.4 0.00 0.46 0.00 63 1015.9
20260510084516 20 0.0 3.2 0.00 0.51 0.00 63 1015.8
20260510084015 21 270 3.2 12.9 0.00 0.56 0.00 62 1015.7
20260510083515 21 270 3.2 14.5 0.00 0.56 0.00 60 1015.8
20260510083035 21 270 1.6 9.7 0.00 0.58 0.00 59 1015.8
20260510082516 21 270 3.2 9.7 0.00 0.58 0.00 60 1015.8
20260510082016 21 270 1.6 9.7 0.00 0.61 0.00 60 1015.8
20260510081515 21 270 1.6 4.8 0.00 0.61 0.00 62 1015.8
20260510081015 21 270 3.2 6.4 0.00 0.61 0.00 62 1015.9
20260510080516 21 270 3.2 9.7 0.00 0.64 0.00 64 1015.9
20260510080015 21 293 1.6 9.7 0.00 0.64 0.00 66 1015.9
20260510075535 21 293 3.2 9.7 0.00 0.64 0.00 68 1016.0
20260510075036 20 293 6.4 12.9 0.00 0.66 0.00 70 1015.9
20260510074515 20 293 6.4 11.3 0.00 0.71 0.00 72 1015.9
20260510074015 20 270 4.8 9.7 0.00 0.71 0.00 73 1016.0
20260510073516 20 270 1.6 6.4 0.00 0.74 0.00 74 1016.2
20260510073016 20 270 4.8 12.9 0.00 0.76 0.00 75 1016.1
20260510072635 19 270 4.8 9.7 0.00 0.81 0.00 76 1016.1
20260510072015 19 270 4.8 12.9 0.00 0.81 0.00 76 1016.0
20260510071515 19 293 1.6 4.8 0.00 0.81 0.00 78 1015.9
20260510071015 18 293 1.6 4.8 0.00 0.81 0.00 80 1015.8
20260510070515 18 293 3.2 6.4 0.00 0.81 0.00 81 1015.9
20260510070016 17 0.0 4.8 0.00 0.81 0.00 82 1015.7
20260510065516 17 0.0 0.0 0.00 0.81 0.00 82 1015.6
20260510065015 17 0.0 3.2 0.00 0.84 0.00 83 1015.5
20260510064515 17 0.0 0.0 0.00 0.86 0.00 84 1015.6
20260510064015 16 293 1.6 4.8 0.00 0.89 0.00 85 1015.7
20260510063515 16 270 4.8 9.7 0.00 0.97 0.00 85 1015.7
20260510063016 16 270 4.8 9.7 0.00 1.02 0.00 86 1015.7
20260510062515 15 270 3.2 6.4 0.00 1.04 0.00 86 1015.7
20260510062035 15 270 3.2 4.8 0.00 1.04 0.00 86 1015.8
20260510061515 15 270 4.8 9.7 0.00 1.07 0.00 87 1015.7
20260510061035 15 293 6.4 11.3 0.00 1.09 0.00 87 1015.6
20260510060515 15 293 8.0 11.3 0.00 1.14 0.00 87 1015.6
20260510060015 14 293 8.0 11.3 0.00 1.22 0.00 87 1015.5
20260510055535 14 293 6.4 11.3 0.00 1.27 0.00 87 1015.5
20260510055015 14 270 6.4 9.7 0.00 1.30 0.00 88 1015.4
20260510054515 13 270 4.8 6.4 0.00 1.35 0.00 88 1015.3
20260510054015 13 270 4.8 9.7 0.00 1.37 0.00 88 1015.3
20260510053515 13 270 6.4 9.7 0.00 1.37 0.00 88 1015.3
20260510053015 13 293 6.4 9.7 0.00 1.37 0.00 88 1015.2
20260510052515 13 293 8.0 11.3 0.00 1.37 0.00 88 1015.2
20260510052035 13 270 8.0 11.3 0.00 1.37 0.00 88 1015.2
20260510051535 13 293 6.4 9.7 0.00 1.37 0.00 88 1015.2
20260510051035 13 270 4.8 6.4 0.00 1.37 0.00 88 1015.3
20260510050535 13 293 6.4 9.7 0.00 1.37 0.00 88 1015.2
20260510050015 13 293 4.8 6.4 0.00 1.37 0.00 88 1015.2
20260510045515 13 293 4.8 9.7 0.00 1.37 0.00 88 1015.2
20260510045017 13 293 6.4 9.7 0.00 1.37 0.00 88 1015.1
20260510044517 13 293 6.4 9.7 0.00 1.37 0.00 88 1015.2
20260510044018 13 293 4.8 9.7 0.00 1.37 0.00 88 1015.2
20260510043517 13 270 4.8 6.4 0.00 1.37 0.00 88 1015.2
20260510043017 13 293 4.8 6.4 0.00 1.37 0.00 88 1015.1
20260510042515 13 293 4.8 6.4 0.00 1.37 0.00 88 1015.0
20260510042017 13 293 4.8 6.4 0.00 1.37 0.00 88 1015.0
20260510041517 13 293 4.8 6.4 0.00 1.37 0.00 88 1015.0
20260510041017 13 270 4.8 6.4 0.00 1.37 0.00 88 1015.0
20260510040537 13 293 4.8 6.4 0.00 1.37 0.00 88 1014.9
20260510040017 13 293 3.2 6.4 0.00 1.37 0.00 88 1014.9
20260510035517 14 293 3.2 4.8 0.00 1.37 0.00 88 1014.9
20260510035017 14 293 3.2 4.8 0.00 1.37 0.00 88 1014.9
20260510034517 14 293 1.6 3.2 0.00 1.37 0.00 88 1014.8
20260510034017 14 270 3.2 3.2 0.00 1.37 0.00 88 1014.8
20260510033517 14 315 1.6 4.8 0.00 1.37 0.00 88 1014.9
20260510033017 14 0.0 3.2 0.00 1.37 0.00 88 1014.8
20260510032517 14 0.0 3.2 0.00 1.37 0.00 88 1014.8
20260510032017 14 315 3.2 4.8 0.00 1.37 0.00 88 1014.8
20260510031517 14 315 3.2 6.4 0.00 1.37 0.00 88 1014.7
20260510031017 14 315 3.2 6.4 0.00 1.37 0.00 88 1014.7
20260510030517 13 315 4.8 8.0 0.00 1.37 0.00 88 1014.7
20260510030017 13 293 4.8 9.7 0.00 1.37 0.00 88 1014.7
20260510025517 13 293 4.8 6.4 0.00 1.37 0.00 88 1014.8
20260510025017 13 293 6.4 9.7 0.00 1.37 0.00 88 1014.7
20260510024517 14 293 6.4 11.3 0.00 1.37 0.00 88 1014.6
20260510024017 14 293 6.4 11.3 0.00 1.37 0.00 88 1014.6
20260510023517 14 293 6.4 11.3 0.00 1.37 0.00 88 1014.6
20260510023037 14 270 4.8 9.7 0.00 1.37 0.00 88 1014.6
20260510022517 14 270 4.8 6.4 0.00 1.37 0.00 88 1014.6
20260510022037 14 293 4.8 6.4 0.00 1.37 0.00 88 1014.6
20260510021517 14 293 3.2 4.8 0.00 1.37 0.00 88 1014.6
20260510021017 14 315 4.8 8.0 0.00 1.37 0.00 88 1014.5
20260510020537 15 315 3.2 6.4 0.00 1.37 0.00 88 1014.5
20260510020017 15 315 4.8 6.4 0.00 1.37 0.00 88 1014.6
20260510015537 15 315 4.8 6.4 0.00 1.37 0.00 88 1014.6
20260510015017 15 315 6.4 8.0 0.00 1.37 0.00 88 1014.6
20260510014517 15 315 4.8 8.0 0.00 1.37 0.00 88 1014.5
20260510014017 15 315 1.6 4.8 0.00 1.37 0.00 88 1014.6
20260510013517 15 315 3.2 8.0 0.00 1.37 0.00 88 1014.6
20260510013017 15 315 3.2 6.4 0.00 1.37 0.00 87 1014.5
20260510012517 15 315 3.2 4.8 0.00 1.37 0.00 87 1014.6
20260510012017 15 315 1.6 3.2 0.00 1.37 0.00 87 1014.6
20260510011517 15 315 1.6 4.8 0.00 1.37 0.00 87 1014.8
20260510011037 15 315 3.2 4.8 0.00 1.37 0.00 87 1014.7
20260510010517 15 338 4.8 6.4 0.00 1.37 0.00 87 1014.7
20260510010017 15 23 3.2 6.4 0.00 1.37 0.00 87 1014.8
20260510005517 15 23 3.2 6.4 0.00 1.37 0.00 87 1014.8
20260510005037 15 23 3.2 6.4 0.00 1.37 0.00 87 1015.0
20260510004517 15 23 1.6 6.4 0.00 1.37 0.00 87 1015.0
20260510004017 15 0.0 3.2 0.00 1.37 0.00 87 1015.0
20260510003516 15 0.0 3.2 0.00 1.37 0.00 87 1015.0
20260510003037 15 0 4.8 14.5 0.00 1.37 0.00 86 1014.9
20260510002517 15 0 8.0 14.5 0.00 1.37 0.00 86 1014.8
20260510002017 15 23 8.0 14.5 0.00 1.37 0.00 86 1014.9
20260510001517 15 45 9.7 14.5 0.00 1.37 0.00 86 1015.0
20260510001017 15 68 6.4 12.9 0.00 1.37 0.00 86 1015.2
20260510000517 15 68 4.8 9.7 0.00 1.37 0.00 85 1015.2
20260510000017 15 68 8.0 9.7 0.00 1.37 0.00 85 1015.2
20260509235536 15 68 8.0 11.3 0.00 1.37 0.00 85 1015.3
20260509235017 15 68 4.8 11.3 0.00 1.37 0.00 84 1015.2
20260509234516 15 68 4.8 11.3 0.00 1.37 0.00 84 1015.4
20260509234016 15 68 3.2 6.4 0.00 1.37 0.00 84 1015.4
20260509233516 15 68 6.4 11.3 0.00 1.37 0.00 83 1015.5
20260509233017 16 90 6.4 11.3 0.00 1.37 0.00 83 1015.5
20260509232517 16 90 3.2 9.7 0.00 1.37 0.00 82 1015.4
20260509232016 16 113 3.2 6.4 0.00 1.37 0.00 82 1015.4
20260509231516 16 0.0 3.2 0.00 1.37 0.00 82 1015.4
20260509231017 16 0.0 0.0 0.00 1.37 0.00 82 1015.5
20260509230517 16 0.0 0.0 0.00 1.37 0.00 82 1015.6
20260509230017 16 113 1.6 3.2 0.00 1.37 0.00 82 1015.6
20260509225516 16 113 1.6 4.8 0.00 1.37 0.00 82 1015.6
20260509225016 16 135 1.6 4.8 0.00 1.37 0.00 82 1015.7
20260509224517 16 0.0 1.6 0.00 1.37 0.00 82 1015.7
20260509224016 16 0.0 3.2 0.00 1.37 0.00 81 1015.7
20260509223516 16 0.0 0.0 0.00 1.37 0.00 81 1015.7
20260509223017 16 0.0 0.0 0.00 1.37 0.00 81 1015.7
20260509222517 16 0.0 0.0 0.00 1.37 0.00 81 1015.6
20260509222016 16 0.0 0.0 0.00 1.37 0.00 81 1015.6
20260509221516 16 0.0 3.2 0.00 1.37 0.00 81 1015.6
20260509221017 16 0.0 3.2 0.00 1.37 0.00 81 1015.3
20260509220537 16 0.0 0.0 0.00 1.37 0.00 81 1015.5
20260509220036 16 0.0 0.0 0.00 1.37 1.37 81 1015.3
20260509215515 16 0.0 0.0 0.00 1.37 1.37 82 1015.4
20260509215016 16 0.0 0.0 0.00 1.37 1.37 82 1015.5
20260509214516 16 0.0 0.0 0.00 1.37 1.37 82 1015.6
20260509214015 16 0.0 0.0 0.00 1.37 1.37 82 1015.6
20260509213536 16 0.0 0.0 0.00 1.37 1.37 82 1015.5
20260509213015 16 0.0 0.0 0.00 1.37 1.37 83 1015.5
20260509212535 16 0.0 4.8 0.00 1.37 1.37 83 1015.5
20260509212055 16 0.0 3.2 0.00 1.37 1.37 83 1015.4
20260509211515 16 0.0 3.2 0.00 1.37 1.37 83 1015.4
20260509211016 16 158 1.6 3.2 0.00 1.37 1.37 83 1015.4
20260509210516 16 0.0 1.6 0.00 1.37 1.37 83 1015.4
20260509210015 16 0.0 1.6 0.00 1.37 1.37 83 1015.3
20260509205515 17 0.0 0.0 0.00 1.37 1.37 83 1015.2
20260509205015 17 0.0 0.0 0.00 1.37 1.37 83 1015.3
20260509204535 17 0.0 0.0 0.00 1.37 1.37 83 1015.2
20260509204015 17 0.0 0.0 0.00 1.37 1.37 82 1015.2
20260509203515 17 0.0 0.0 0.00 1.37 1.37 82 1015.1
20260509203015 17 0.0 0.0 0.00 1.37 1.37 82 1015.0
20260509202515 17 0.0 0.0 0.00 1.37 1.37 82 1015.0
20260509202015 17 0.0 0.0 0.00 1.37 1.37 82 1015.0
20260509201515 17 0.0 0.0 0.00 1.37 1.37 82 1014.9
20260509201015 17 0.0 0.0 0.00 1.37 1.37 82 1014.9
20260509200515 17 0.0 3.2 0.00 1.37 1.37 82 1014.8
20260509200015 17 158 1.6 4.8 0.00 1.37 1.37 83 1014.7
20260509195515 17 158 4.8 12.9 0.00 1.37 1.37 83 1014.7
20260509195015 17 135 6.4 12.9 0.00 1.37 1.37 83 1014.6
20260509194515 17 135 6.4 11.3 0.00 1.37 1.37 83 1014.5
20260509194015 17 135 3.2 8.0 0.00 1.37 1.37 83 1014.5
20260509193515 17 158 3.2 9.7 0.00 1.37 1.37 83 1014.5
20260509193017 17 135 3.2 9.7 0.00 1.37 1.37 83 1014.4
20260509192517 17 0.0 4.8 0.00 1.37 1.37 83 1014.4
20260509192018 17 135 3.2 6.4 0.00 1.37 1.37 83 1014.3
20260509191517 17 135 1.6 6.4 0.00 1.37 1.37 83 1014.3
20260509191017 17 135 3.2 9.7 0.00 1.37 1.37 83 1014.3
20260509190537 17 135 4.8 9.7 0.00 1.37 1.37 83 1014.1
20260509190017 17 135 6.4 16.1 0.00 1.37 1.37 83 1014.1
20260509185517 17 158 4.8 11.3 0.00 1.37 1.37 84 1013.9
20260509185017 17 135 3.2 12.9 0.00 1.37 1.37 84 1013.9
20260509184537 17 135 4.8 14.5 0.00 1.37 1.37 84 1013.8